[[{"header":{"parameterUnit":"m.s-1","parameterCategory":1,"la1":30.2991,"la2":30.254,"lo1":-89.0895,"lo2":-89.0444,"dy":0.0017,"dx":0.0017,"nx":28,"ny":28,"refTime":"2024-12-22T09:00:00:Z","depth":0,"parameterNumber":2,"parameterNumberName":"U-component_of_WINDS"},"data":[0,0,0,0,0,0,0,0,0,0,0,0,0,0,0,0,0,0,0,0,0,0,0,0,0,0,0,0,0,0,0,0,0,0,0,0,0,0,0,0,0,0,0,0,0,0,0,0,0,0,0,0,0,0,0,0,0,0,-2.5327,-2.5328,0,-2.5419,-2.542,-2.5421,-2.5311,-2.5307,-2.5303,-2.5299,-2.5396,-2.5403,-2.5409,0,0,0,0,0,0,0,0,0,0,0,0,0,-2.5057,-2.5062,-2.5327,-2.5328,-2.5329,-2.5419,-2.542,-2.5422,-2.5311,-2.5306,-2.5301,-2.5297,-2.5394,-2.5402,-2.541,0,0,0,0,0,0,0,0,0,0,0,0,0,-2.5164,-2.5064,-2.5327,-2.5285,-2.5282,-2.5419,-2.542,-2.5422,-2.5313,-2.5306,-2.53,-2.5294,-2.5392,-2.5401,-2.5411,-2.5594,0,0,-2.544,-2.5444,0,0,0,0,0,0,0,0,-2.5158,-2.5174,-2.529,-2.5288,-2.5285,-2.5347,-2.5361,-2.548,-2.5314,-2.5301,-2.5299,-2.5291,-2.5385,-2.5395,-2.5426,-2.5599,-2.5603,-2.5441,-2.5447,-2.5451,-2.5454,0,0,0,0,0,0,0,-2.5151,-2.517,-2.5363,-2.5292,-2.5289,-2.5262,-2.5271,-2.5383,-2.5377,-2.5302,-2.5294,-2.5306,-2.5383,-2.5417,-2.5428,-2.5604,-2.5441,-2.5449,-2.5455,-2.5459,-2.5932,-2.5939,0,0,0,0,0,0,-2.5148,-2.5164,-2.536,-2.5366,-2.5205,-2.5272,-2.5281,-2.5334,-2.5375,-2.5376,-2.5311,-2.5301,-2.5404,-2.5416,-2.5431,-2.5649,-2.5451,-2.546,-2.5466,-2.5926,-2.5934,-2.5941,0,0,0,0,0,0,-2.5143,-2.5167,-2.5357,-2.5263,-2.5285,-2.5283,-2.5343,-2.5339,-2.5373,-2.5382,-2.5381,-2.5348,-2.5399,-2.5417,-2.5554,-2.5651,-2.5464,-2.5473,-2.5918,-2.5928,-2.5937,-2.6088,0,0,0,0,0,0,-2.5135,-2.5165,-2.5235,-2.5265,-2.5291,-2.5479,-2.5348,-2.5345,-2.5389,-2.5376,-2.5416,-2.5417,-2.5396,-2.554,-2.5564,-2.5661,-2.5481,-2.5909,-2.5922,-2.5934,-2.6074,-2.6102,-2.6125,0,0,0,0,0,-2.5126,-2.5274,-2.5239,-2.5263,-2.5377,-2.5485,-2.5499,-2.5471,-2.5398,-2.5468,-2.5474,-2.5415,-2.5636,-2.5555,-2.5581,-2.5683,-2.5903,-2.5918,-2.5933,-2.6063,-2.6096,-2.6125,0,0,0,0,0,0,-2.5256,-2.5277,-2.5239,-2.54,-2.5442,-2.5466,-2.5554,-2.5508,-2.5571,-2.5557,-2.5519,-2.5529,-2.5676,-2.5692,-2.5602,-2.5862,-2.5757,-2.5778,-2.5847,-2.5879,-2.5904,-2.5899,-2.5489,0,0,0,0,0,-2.5303,-2.5388,-2.5402,-2.5543,-2.5566,-2.5556,-2.5602,-2.5577,-2.5618,-2.5635,-2.5651,-2.5695,-2.5773,-2.5826,-2.5899,-2.6074,-2.6083,-2.6157,-2.6182,-2.6203,-2.6223,-2.6318,-2.6352,-2.5991,-2.5991,-2.5991,0,0,-2.5402,-2.5424,-2.548,-2.557,-2.5599,-2.5689,-2.5572,-2.5671,-2.5738,-2.5651,-2.5782,-2.5795,-2.584,-2.5998,-2.6068,-2.6016,-2.6324,-2.6223,-2.6239,-2.6248,-2.6338,-2.6372,-2.6402,-2.6001,-2.6,-2.5998,0,0,-2.5629,-2.5653,-2.5775,-2.5805,-2.585,-2.5842,-2.5871,-2.5903,-2.5908,-2.6038,-2.5975,-2.6053,-2.6189,-2.6225,-2.6261,-2.6499,-2.6449,-2.6524,-2.6659,-2.6753,-2.6781,-2.6806,-2.6894,-2.6925,-2.6543,-2.6543,-2.6543,0,-2.5748,-2.5879,-2.5843,-2.5948,-2.599,-2.5912,-2.6036,-2.6067,-2.6134,-2.6165,-2.6105,-2.6275,-2.63,-2.6465,-2.6523,-2.6554,-2.6587,-2.6521,-2.6779,-2.6804,-2.6827,-2.6911,-2.6943,-2.6552,-2.6551,-2.655,-2.6549,0,-2.6024,-2.6116,-2.6208,-2.6274,-2.6326,-2.6439,-2.6421,-2.6478,-2.6447,-2.6446,-2.658,-2.6607,-2.6685,-2.6721,-2.6692,-2.6883,-2.6849,-2.6785,-2.668,-2.6872,-2.6949,-2.6981,-2.6565,-2.6562,-2.6559,-2.6557,0,0,-2.6339,-2.6381,-2.6416,-2.6445,-2.6488,-2.6559,-2.6668,-2.6743,-2.6794,-2.6841,-2.6934,-2.705,-2.699,-2.7031,-2.7005,-2.7087,-2.7277,-2.7012,-2.7013,-2.7063,-2.7491,-2.7541,-2.7579,-2.7241,-2.7247,-2.7252,-2.7488,0,-2.6569,-2.6758,-2.6728,-2.6912,-2.6998,-2.6925,-2.702,-2.7057,-2.7058,-2.7131,-2.7132,-2.7217,-2.713,-2.7155,-2.7232,-2.7238,-2.7363,-2.7219,-2.733,-2.7334,-2.7324,-2.7619,-2.7673,-2.7894,-2.7517,-2.7523,-2.7526,0,-2.6863,-2.6921,-2.7114,-2.7142,-2.7177,-2.7264,-2.733,-2.74,-2.744,-2.7435,-2.748,-2.7439,-2.7549,-2.7439,-2.7591,-2.7495,-2.7537,-2.7546,-2.7554,-2.7567,-2.7445,-2.7643,-2.7964,-2.7999,-2.7573,-2.7569,-2.7566,0,-2.7078,-2.7203,-2.7335,-2.7361,-2.7398,-2.7461,-2.7479,-2.7512,-2.7559,-2.7617,-2.7647,-2.7717,-2.7756,-2.7811,-2.7791,-2.7712,-2.7948,-2.7835,-2.7949,-2.795,-2.8005,-2.8003,-2.8342,-2.8027,-2.8027,-2.8026,-2.8025,0,-2.734,-2.7461,-2.7432,-2.7514,-2.7647,-2.7611,-2.7744,-2.7753,-2.7784,-2.7866,-2.7806,-2.7885,-2.7851,-2.7927,-2.7911,-2.8041,-2.8058,-2.8059,-2.8054,-2.8067,-2.8067,-2.8097,-2.8082,-2.8035,-2.8033,-2.8031,-2.8029,0,-2.7604,-2.7589,-2.7728,-2.775,-2.7758,-2.7857,-2.7876,-2.7953,-2.7947,-2.8053,-2.8075,-2.8069,-2.8156,-2.8139,-2.8235,-2.8224,-2.8388,-2.8362,-2.8375,-2.837,-2.8486,-2.8477,-2.8859,-2.8908,-2.8558,-2.8562,-2.8564,0,-2.7774,-2.7866,-2.7897,-2.7948,-2.7971,-2.8053,-2.81,-2.8066,-2.8118,-2.817,-2.8241,-2.8322,-2.8386,-2.8529,-2.8533,-2.8606,-2.8584,-2.8712,-2.8595,-2.8605,-2.859,-2.8586,-2.8596,-2.8738,-2.8741,-2.8745,-2.8747,0,-2.8079,-2.8066,-2.8136,-2.8204,-2.8262,-2.8314,-2.836,-2.8405,-2.8375,-2.8436,-2.8524,-2.8574,-2.8671,-2.8753,-2.8821,-2.884,-2.8791,-2.8783,-2.8814,-2.883,-2.8835,-2.8837,-2.8442,-2.8776,-2.8773,-2.8771,-2.877,-2.8768,-2.8304,-2.8382,-2.8417,-2.8497,-2.8527,-2.8571,-2.8645,-2.8648,-2.8721,-2.8798,-2.8772,-2.8873,-2.891,-2.8996,-2.9022,-2.9101,-2.9053,-2.9097,-2.9109,-2.9121,-2.9137,-2.8819,-2.9113,-2.9112,-2.9111,-2.911,-2.911,0,-2.8608,-2.8626,-2.87,-2.8766,-2.8829,-2.8773,-2.8821,-2.8878,-2.8967,-2.9005,-2.9068,-2.917,-2.9249,-2.9258,-2.9333,-2.9394,-2.9373,-2.9415,-2.9412,-2.9418,-2.9174,-2.9141,-2.9431,-2.9431,-2.9431,-2.9431,-2.9431,-2.9431,-2.8774,-2.8905,-2.8896,-2.9041,-2.9057,-2.9155,-2.9188,-2.9228,-2.9259,-2.9374,-2.9439,-2.9444,-2.9471,-2.9547,-2.9617,-2.9618,-2.965,-2.9701,-2.9694,-2.9467,-2.9435,-2.9405,-2.9374,-2.9708,-2.9708,-2.9932,-2.9934,-2.9935]},{"header":{"parameterUnit":"m.s-1","parameterCategory":1,"la1":30.2991,"la2":30.254,"lo1":-89.0895,"lo2":-89.0444,"dy":0.0017,"dx":0.0017,"nx":28,"ny":28,"refTime":"2024-12-22T09:00:00:Z","depth":0,"parameterNumber":3,"parameterNumberName":"V-component_of_WINDS"},"data":[0,0,0,0,0,0,0,0,0,0,0,0,0,0,0,0,0,0,0,0,0,0,0,0,0,0,0,0,0,0,0,0,0,0,0,0,0,0,0,0,0,0,0,0,0,0,0,0,0,0,0,0,0,0,0,0,0,0,-4.8963,-4.8964,0,-4.9074,-4.9075,-4.9076,-4.901,-4.9006,-4.9003,-4.9,-4.911,-4.9115,-4.9121,0,0,0,0,0,0,0,0,0,0,0,0,0,-4.8687,-4.8693,-4.8963,-4.8964,-4.8965,-4.9074,-4.9075,-4.9077,-4.901,-4.9006,-4.9002,-4.8999,-4.9108,-4.9115,-4.9122,0,0,0,0,0,0,0,0,0,0,0,0,0,-4.8804,-4.8695,-4.8962,-4.8945,-4.8945,-4.9073,-4.9075,-4.9077,-4.9011,-4.9006,-4.9001,-4.8997,-4.9105,-4.9114,-4.9123,-4.9273,0,0,-4.915,-4.9154,0,0,0,0,0,0,0,0,-4.8797,-4.8814,-4.8946,-4.8947,-4.8946,-4.9023,-4.9018,-4.9143,-4.9012,-4.8986,-4.9,-4.8994,-4.9084,-4.9095,-4.9126,-4.9278,-4.9283,-4.9151,-4.9156,-4.916,-4.9162,0,0,0,0,0,0,0,-4.8789,-4.8809,-4.9006,-4.8948,-4.8948,-4.893,-4.8942,-4.9042,-4.906,-4.8988,-4.8983,-4.8997,-4.9083,-4.9118,-4.9128,-4.9284,-4.915,-4.9158,-4.9164,-4.9167,-4.9564,-4.9569,0,0,0,0,0,0,-4.8783,-4.8802,-4.9003,-4.901,-4.8859,-4.8939,-4.8952,-4.9003,-4.9059,-4.9063,-4.9001,-4.8994,-4.9105,-4.9118,-4.9132,-4.931,-4.916,-4.9168,-4.9173,-4.9559,-4.9565,-4.9571,0,0,0,0,0,0,-4.8777,-4.8802,-4.8998,-4.8905,-4.8929,-4.8949,-4.9007,-4.9008,-4.9042,-4.907,-4.9072,-4.9033,-4.9102,-4.9119,-4.9238,-4.9313,-4.9172,-4.918,-4.9552,-4.956,-4.9568,-4.967,0,0,0,0,0,0,-4.877,-4.88,-4.8859,-4.8907,-4.8934,-4.9105,-4.9012,-4.9014,-4.9058,-4.9049,-4.91,-4.9104,-4.9099,-4.9226,-4.9247,-4.9323,-4.9187,-4.9546,-4.9556,-4.9565,-4.966,-4.968,-4.9698,0,0,0,0,0,-4.876,-4.8882,-4.8862,-4.8886,-4.9008,-4.911,-4.9125,-4.9118,-4.9064,-4.9122,-4.914,-4.9102,-4.9302,-4.9238,-4.9262,-4.9342,-4.9541,-4.9553,-4.9564,-4.9651,-4.9676,-4.9697,0,0,0,0,0,0,-4.8841,-4.8888,-4.8866,-4.9008,-4.9055,-4.9098,-4.9171,-4.9145,-4.9208,-4.9197,-4.9185,-4.9197,-4.9321,-4.9343,-4.9272,-4.9489,-4.9412,-4.943,-4.947,-4.9494,-4.9513,-4.9505,-4.9194,0,0,0,0,0,-4.8875,-4.8956,-4.8992,-4.9113,-4.9138,-4.9151,-4.9195,-4.9186,-4.9234,-4.9254,-4.928,-4.9327,-4.94,-4.9448,-4.9517,-4.9663,-4.9672,-4.9729,-4.9748,-4.9763,-4.9778,-4.9855,-4.9881,-4.9609,-4.9609,-4.9609,0,0,-4.8947,-4.8983,-4.9034,-4.913,-4.9166,-4.9248,-4.9168,-4.9259,-4.9319,-4.9267,-4.9381,-4.9402,-4.9453,-4.9586,-4.9646,-4.9608,-4.9855,-4.9778,-4.979,-4.9797,-4.987,-4.9896,-4.9919,-4.9617,-4.9616,-4.9615,0,0,-4.9119,-4.9155,-4.926,-4.9297,-4.9353,-4.9361,-4.9386,-4.9433,-4.9445,-4.956,-4.9522,-4.9593,-4.9719,-4.9757,-4.9793,-4.9979,-4.9946,-5.0002,-5.01,-5.0176,-5.0197,-5.0216,-5.0282,-5.0306,-5.0016,-5.0017,-5.0017,0,-4.9201,-4.9325,-4.9316,-4.941,-4.9453,-4.9411,-4.9515,-4.9552,-4.9627,-4.9656,-4.9613,-4.9771,-4.9802,-4.9943,-4.9989,-5.0019,-5.0046,-4.9996,-5.0195,-5.0214,-5.0231,-5.0294,-5.0319,-5.0023,-5.0022,-5.0022,-5.0021,0,-4.9422,-4.9508,-4.9585,-4.966,-4.9711,-4.981,-4.9815,-4.9868,-4.9854,-4.9866,-4.9982,-5.0019,-5.0094,-5.0126,-5.0113,-5.0265,-5.024,-5.0197,-5.0119,-5.0264,-5.0322,-5.0346,-5.0032,-5.003,-5.0028,-5.0026,0,0,-4.9648,-4.9717,-4.9746,-4.9779,-4.9837,-4.9902,-4.9998,-5.0073,-5.0118,-5.017,-5.025,-5.0357,-5.0317,-5.0358,-5.0349,-5.0415,-5.0559,-5.0363,-5.0364,-5.0398,-5.0727,-5.076,-5.0788,-5.0538,-5.0542,-5.0546,-5.0723,0,-4.9824,-4.9993,-4.9988,-5.0145,-5.0224,-5.0185,-5.0268,-5.0311,-5.0325,-5.0392,-5.0405,-5.0482,-5.0423,-5.0447,-5.0512,-5.0528,-5.0625,-5.0515,-5.061,-5.0613,-5.0598,-5.0818,-5.0853,-5.1018,-5.0746,-5.075,-5.0752,0,-5.0052,-5.0113,-5.0279,-5.0324,-5.0357,-5.0432,-5.05,-5.0565,-5.0613,-5.0617,-5.0663,-5.0643,-5.0738,-5.0659,-5.0789,-5.0714,-5.0752,-5.0766,-5.0772,-5.0781,-5.0692,-5.0832,-5.1071,-5.1096,-5.0788,-5.0785,-5.0783,0,-5.02,-5.0324,-5.0439,-5.0468,-5.0524,-5.0578,-5.0603,-5.0647,-5.0692,-5.075,-5.0779,-5.0847,-5.0885,-5.0937,-5.0935,-5.0878,-5.1067,-5.0987,-5.1072,-5.1073,-5.1114,-5.1111,-5.1362,-5.1139,-5.1139,-5.1138,-5.1138,0,-5.0396,-5.0499,-5.0506,-5.0576,-5.0689,-5.0682,-5.0793,-5.0813,-5.0852,-5.0924,-5.0894,-5.0962,-5.0956,-5.1024,-5.1023,-5.113,-5.1147,-5.1153,-5.1151,-5.1156,-5.1155,-5.118,-5.1168,-5.1145,-5.1144,-5.1142,-5.1141,0,-5.0581,-5.059,-5.0712,-5.0756,-5.0769,-5.085,-5.0886,-5.0953,-5.0963,-5.1055,-5.1076,-5.1091,-5.117,-5.1173,-5.1264,-5.1263,-5.1394,-5.1379,-5.1378,-5.1375,-5.146,-5.1452,-5.1735,-5.1772,-5.1526,-5.1528,-5.153,0,-5.0706,-5.0784,-5.0836,-5.0883,-5.0912,-5.0988,-5.1034,-5.1029,-5.1078,-5.1138,-5.1196,-5.1273,-5.1333,-5.1461,-5.1479,-5.1547,-5.1534,-5.1629,-5.1544,-5.1546,-5.1535,-5.153,-5.1538,-5.1645,-5.1648,-5.165,-5.1652,0,-5.0926,-5.0926,-5.0995,-5.1065,-5.1121,-5.1175,-5.1226,-5.1266,-5.1266,-5.1322,-5.1403,-5.145,-5.1543,-5.1618,-5.1685,-5.1709,-5.1681,-5.1679,-5.1702,-5.1707,-5.1703,-5.1706,-5.1423,-5.1672,-5.167,-5.1669,-5.1668,-5.1667,-5.1084,-5.1151,-5.1198,-5.1275,-5.1313,-5.1361,-5.1425,-5.1443,-5.1511,-5.1587,-5.1579,-5.1669,-5.1713,-5.18,-5.183,-5.1899,-5.1866,-5.19,-5.1908,-5.1917,-5.1925,-5.1692,-5.1911,-5.191,-5.191,-5.1909,-5.1909,0,-5.1302,-5.133,-5.1401,-5.1473,-5.1534,-5.1503,-5.1557,-5.1609,-5.1688,-5.1733,-5.1794,-5.1886,-5.1959,-5.1983,-5.2053,-5.2104,-5.2092,-5.2122,-5.2118,-5.2124,-5.1951,-5.1924,-5.213,-5.213,-5.213,-5.213,-5.213,-5.213,-5.1423,-5.1535,-5.1541,-5.167,-5.1697,-5.1786,-5.182,-5.1863,-5.1898,-5.2004,-5.2065,-5.208,-5.2116,-5.2189,-5.2254,-5.2259,-5.2286,-5.2321,-5.2321,-5.2159,-5.2136,-5.2115,-5.2089,-5.2327,-5.2327,-5.2488,-5.2489,-5.249]}]]